FLOCK 4A-8 (44092 NORAD) Tracking and Keplerian Element Data

This shows tracking and keplerian element data for the satellite.

Feedback or suggestion? Click here.




ElementValue
Catalog44092
NameFLOCK 4A-8
Epoch Orbit309
Epoch Day111.72203048
Epoch Year2019
RAAN172.1136
Inclination97.4626
Eccentricity0.0010574
Argument of Perigee209.7786
Mean Anonmoly150.285
Mean Motion15.2182595
Decay Rate1.592E-05
L11 44092U 19018Q 19111.72203048 .00001592 00000-0 73108-4 0 9997
L22 44092 97.4626 172.1136 0010574 209.7786 150.2850 15.21825950 3093

Live tracking and technical data element details for FLOCK 4A-8 (NORAD 44092). FLOCK 4A-8 can be tracked NOW for your location showing map with azimuth and elevation plus other details from your city location.

Track the satellite on the map from your city or location and see movement details for azimuth, elevation, latitude, longitude, range, height, and movement on the map or in text.







IsCatalogInMostPopularTable: catalog: 44092, numindb: 8
Update: records affected: 1



GetName: 44092 FLOCK 4A-8

Hit Count: updated at: Tue, 23 Apr 2019 03:09:05 GMT